| time (UTC) | temp C | wind direction | speed KPH | gust KPH | rain 1hr cm | rain 24hr cm | rain mn cm | humidity % | barometer mb |
| 20260504202250 | 10 | 265 | 17.7 | 38.6 | 0.00 | 0.00 | 0.00 | 34 | 1000.0 |
| 20260504202226 | 10 | 222 | 19.3 | 38.6 | 0.00 | 0.00 | 0.00 | 34 | 999.8 |
| 20260504201428 | 10 | 271 | 16.1 | 38.6 | 0.00 | 0.00 | 0.00 | 34 | 999.8 |
| 20260504200654 | 10 | 289 | 14.5 | 38.6 | 0.00 | 0.00 | 0.00 | 34 | 999.8 |
| 20260504200126 | 9 | 329 | 17.7 | 38.6 | 0.00 | 0.00 | 0.00 | 34 | 999.8 |
| 20260504195624 | 9 | 315 | 19.3 | 40.2 | 0.00 | 0.00 | 0.00 | 35 | 999.7 |
| 20260504195117 | 9 | 293 | 19.3 | 45.1 | 0.00 | 0.00 | 0.00 | 34 | 999.6 |
| 20260504194548 | 10 | 241 | 19.3 | 45.1 | 0.00 | 0.00 | 0.00 | 35 | 999.7 |
| 20260504194046 | 10 | 238 | 16.1 | 43.5 | 0.00 | 0.00 | 0.00 | 35 | 999.5 |
| 20260504193525 | 10 | 262 | 16.1 | 43.5 | 0.00 | 0.00 | 0.00 | 34 | 999.5 |
| 20260504193027 | 10 | 310 | 17.7 | 40.2 | 0.00 | 0.00 | 0.00 | 34 | 999.1 |
| 20260504192526 | 10 | 226 | 14.5 | 37.0 | 0.00 | 0.00 | 0.00 | 33 | 999.1 |
| 20260504192024 | 10 | 281 | 17.7 | 46.7 | 0.00 | 0.00 | 0.00 | 34 | 999.1 |
| 20260504191528 | 10 | 245 | 17.7 | 46.7 | 0.00 | 0.00 | 0.00 | 33 | 998.9 |
| 20260504191027 | 10 | 219 | 17.7 | 46.7 | 0.00 | 0.00 | 0.00 | 35 | 998.7 |
| 20260504190834 | 10 | 286 | 20.9 | 46.7 | 0.00 | 0.00 | 0.00 | 34 | 998.8 |
| 20260504190730 | 10 | 251 | 22.5 | 40.2 | 0.00 | 0.00 | 0.00 | 34 | 998.7 |
| 20260504185428 | 10 | 329 | 22.5 | 53.1 | 0.00 | 0.00 | 0.00 | 35 | 998.6 |
| 20260504184926 | 10 | 330 | 19.3 | 41.8 | 0.00 | 0.00 | 0.00 | 35 | 998.6 |
| 20260504184358 | 10 | 259 | 17.7 | 46.7 | 0.00 | 0.00 | 0.00 | 36 | 998.5 |
| 20260504183856 | 10 | 252 | 17.7 | 46.7 | 0.00 | 0.00 | 0.00 | 37 | 998.5 |
| 20260504183351 | 10 | 288 | 19.3 | 37.0 | 0.00 | 0.00 | 0.00 | 37 | 998.2 |
| 20260504182848 | 10 | 209 | 17.7 | 37.0 | 0.00 | 0.00 | 0.00 | 37 | 998.4 |
| 20260504182322 | 10 | 287 | 14.5 | 35.4 | 0.00 | 0.00 | 0.00 | 36 | 998.2 |
| 20260504181755 | 10 | 254 | 17.7 | 46.7 | 0.00 | 0.00 | 0.00 | 35 | 998.1 |
| 20260504181252 | 10 | 313 | 19.3 | 46.7 | 0.00 | 0.00 | 0.00 | 36 | 997.9 |
| 20260504180956 | 10 | 204 | 20.9 | 41.8 | 0.00 | 0.00 | 0.00 | 37 | 997.9 |
| 20260504180221 | 10 | 293 | 16.1 | 41.8 | 0.00 | 0.00 | 0.00 | 39 | 997.8 |
| 20260504175655 | 10 | 247 | 11.3 | 37.0 | 0.00 | 0.00 | 0.00 | 39 | 997.9 |
| 20260504175129 | 10 | 240 | 14.5 | 37.0 | 0.00 | 0.00 | 0.00 | 40 | 997.8 |
| 20260504174626 | 10 | 323 | 14.5 | 37.0 | 0.00 | 0.00 | 0.00 | 40 | 997.8 |
| 20260504174058 | 10 | 227 | 12.9 | 37.0 | 0.00 | 0.00 | 0.00 | 40 | 997.7 |
| 20260504173555 | 10 | 259 | 12.9 | 37.0 | 0.00 | 0.00 | 0.00 | 40 | 997.7 |
| 20260504173027 | 10 | 196 | 16.1 | 37.0 | 0.00 | 0.00 | 0.00 | 40 | 997.5 |
| 20260504172502 | 10 | 257 | 16.1 | 40.2 | 0.00 | 0.00 | 0.00 | 39 | 997.4 |
| 20260504171934 | 10 | 76 | 16.1 | 40.2 | 0.00 | 0.00 | 0.00 | 39 | 997.5 |
| 20260504171431 | 9 | 263 | 17.7 | 45.1 | 0.00 | 0.00 | 0.00 | 41 | 997.4 |
| 20260504170905 | 9 | 296 | 16.1 | 45.1 | 0.00 | 0.00 | 0.00 | 40 | 997.3 |
| 20260504170340 | 10 | 254 | 19.3 | 45.1 | 0.00 | 0.00 | 0.00 | 41 | 997.3 |
| 20260504150832 | 11 | 331 | 17.7 | 37.0 | 0.00 | 0.00 | 0.00 | 41 | 994.8 |
| 20260504150334 | 11 | 283 | 20.9 | 41.8 | 0.00 | 0.00 | 0.00 | 42 | 994.8 |
| 20260504141133 | 11 | 274 | 16.1 | 48.3 | 0.00 | 0.00 | 0.00 | 43 | 994.3 |
| 20260504140906 | 11 | 257 | 17.7 | 41.8 | 0.00 | 0.00 | 0.00 | 46 | 994.2 |
| 20260504140109 | 11 | 313 | 11.3 | 38.6 | 0.00 | 0.00 | 0.00 | 46 | 994.0 |
| 20260504130342 | 10 | 209 | 11.3 | 24.1 | 0.00 | 0.00 | 0.00 | 54 | 993.3 |
| 20260504110443 | 12 | 269 | 16.1 | 51.5 | 0.00 | 0.00 | 0.00 | 45 | 991.8 |
| 20260504110148 | 13 | 306 | 12.9 | 51.5 | 0.00 | 0.00 | 0.00 | 44 | 991.8 |
| 20260504100144 | 16 | 237 | 16.1 | 27.4 | 0.00 | 0.00 | 0.00 | 23 | 990.6 |
| 20260504081637 | 16 | 192 | 14.5 | 30.6 | 0.00 | 0.00 | 0.00 | 23 | 992.6 |
| 20260504081112 | 16 | 179 | 14.5 | 29.0 | 0.00 | 0.00 | 0.00 | 23 | 992.8 |
| 20260504080546 | 16 | 219 | 14.5 | 32.2 | 0.00 | 0.00 | 0.00 | 24 | 993.0 |
| 20260504070322 | 15 | 219 | 9.7 | 29.0 | 0.00 | 0.00 | 0.00 | 26 | 994.5 |
| 20260504060128 | 15 | 238 | 9.7 | 25.7 | 0.00 | 0.00 | 0.00 | 25 | 996.4 |
| 20260504050444 | 15 | 205 | 9.7 | 19.3 | 0.00 | 0.00 | 0.00 | 23 | 997.3 |
| 20260504045945 | 15 | 221 | 9.7 | 17.7 | 0.00 | 0.00 | 0.00 | 23 | 997.5 |
| 20260504045417 | 15 | 227 | 9.7 | 19.3 | 0.00 | 0.00 | 0.00 | 23 | 997.6 |
| 20260504044852 | 15 | 191 | 11.3 | 24.1 | 0.00 | 0.00 | 0.00 | 23 | 997.7 |
| 20260504044326 | 15 | 231 | 9.7 | 24.1 | 0.00 | 0.00 | 0.00 | 23 | 997.9 |
| 20260504043807 | 15 | 239 | 8.0 | 16.1 | 0.00 | 0.00 | 0.00 | 23 | 998.1 |
| 20260504043309 | 15 | 198 | 8.0 | 16.1 | 0.00 | 0.00 | 0.00 | 24 | 998.2 |
| 20260504042745 | 15 | 232 | 6.4 | 16.1 | 0.00 | 0.00 | 0.00 | 23 | 998.3 |
| 20260504042246 | 15 | 231 | 8.0 | 17.7 | 0.00 | 0.00 | 0.00 | 23 | 998.4 |
| 20260504041727 | 15 | 234 | 8.0 | 17.7 | 0.00 | 0.00 | 0.00 | 23 | 998.5 |
| 20260504041227 | 15 | 226 | 6.4 | 14.5 | 0.00 | 0.00 | 0.00 | 23 | 998.6 |
| 20260504040702 | 15 | 222 | 6.4 | 12.9 | 0.00 | 0.00 | 0.00 | 23 | 998.9 |
| 20260504040411 | 15 | 217 | 6.4 | 14.5 | 0.00 | 0.00 | 0.00 | 23 | 999.0 |
| 20260504035639 | 15 | 234 | 6.4 | 14.5 | 0.00 | 0.00 | 0.00 | 23 | 999.1 |
| 20260504035119 | 15 | 219 | 6.4 | 12.9 | 0.00 | 0.00 | 0.00 | 24 | 999.4 |
| 20260504034851 | 15 | 238 | 4.8 | 12.9 | 0.00 | 0.00 | 0.00 | 24 | 999.5 |
| 20260504034102 | 15 | 210 | 3.2 | 8.0 | 0.00 | 0.00 | 0.00 | 24 | 999.6 |
| 20260504033835 | 15 | 201 | 1.6 | 8.0 | 0.00 | 0.00 | 0.00 | 24 | 999.7 |
| 20260504033041 | 15 | 208 | 0.0 | 3.2 | 0.00 | 0.00 | 0.00 | 23 | 999.9 |
| 20260504032534 | 15 | 208 | 1.6 | 4.8 | 0.00 | 0.00 | 0.00 | 22 | 1000.0 |
| 20260504032032 | 15 | 209 | 1.6 | 8.0 | 0.00 | 0.00 | 0.00 | 22 | 1000.2 |
| 20260504031516 | 15 | 209 | 3.2 | 8.0 | 0.00 | 0.00 | 0.00 | 22 | 1000.2 |
| 20260504031015 | 15 | 217 | 1.6 | 6.4 | 0.00 | 0.00 | 0.00 | 21 | 1000.4 |
| 20260504030513 | 15 | 196 | 3.2 | 11.3 | 0.00 | 0.00 | 0.00 | 22 | 1000.4 |
| 20260504025955 | 16 | 228 | 3.2 | 11.3 | 0.00 | 0.00 | 0.00 | 21 | 1000.6 |
| 20260504025454 | 16 | 207 | 3.2 | 12.9 | 0.00 | 0.00 | 0.00 | 21 | 1000.6 |
| 20260504024952 | 16 | 199 | 3.2 | 12.9 | 0.00 | 0.00 | 0.00 | 20 | 1000.7 |
| 20260504024721 | 16 | 198 | 3.2 | 8.0 | 0.00 | 0.00 | 0.00 | 20 | 1000.7 |
| 20260504024158 | 16 | 198 | 4.8 | 8.0 | 0.00 | 0.00 | 0.00 | 20 | 1000.9 |
| 20260504023402 | 16 | 223 | 4.8 | 11.3 | 0.00 | 0.00 | 0.00 | 20 | 1000.8 |
| 20260504022835 | 16 | 252 | 4.8 | 11.3 | 0.00 | 0.00 | 0.00 | 20 | 1000.9 |
| 20260504022812 | 16 | 229 | 4.8 | 11.3 | 0.00 | 0.00 | 0.00 | 19 | 1001.0 |
| 20260504022427 | 16 | 258 | 6.4 | 11.3 | 0.00 | 0.00 | 0.00 | 19 | 1001.1 |
| 20260504021241 | 16 | 220 | 4.8 | 9.7 | 0.00 | 0.00 | 0.00 | 20 | 1001.2 |
| 20260504020716 | 16 | 246 | 4.8 | 8.0 | 0.00 | 0.00 | 0.00 | 20 | 1001.3 |
| 20260504020150 | 15 | 261 | 3.2 | 6.4 | 0.00 | 0.00 | 0.00 | 21 | 1001.4 |
| 20260504015856 | 15 | 263 | 4.8 | 9.7 | 0.00 | 0.00 | 0.00 | 24 | 1001.4 |
| 20260504015057 | 15 | 275 | 4.8 | 6.4 | 0.00 | 0.00 | 0.00 | 21 | 1001.5 |
| 20260504014531 | 16 | 278 | 4.8 | 9.7 | 0.00 | 0.00 | 0.00 | 20 | 1001.6 |
| 20260504014028 | 16 | 270 | 4.8 | 9.7 | 0.00 | 0.00 | 0.00 | 19 | 1001.7 |
| 20260504013737 | 16 | 269 | 4.8 | 6.4 | 0.00 | 0.00 | 0.00 | 19 | 1001.8 |
| 20260504012959 | 16 | 259 | 4.8 | 6.4 | 0.00 | 0.00 | 0.00 | 20 | 1001.8 |
| 20260504012457 | 16 | 248 | 3.2 | 6.4 | 0.00 | 0.00 | 0.00 | 19 | 1001.8 |
| 20260504011928 | 17 | 248 | 3.2 | 6.4 | 0.00 | 0.00 | 0.00 | 17 | 1001.9 |
| 20260504011403 | 17 | 247 | 3.2 | 4.8 | 0.00 | 0.00 | 0.00 | 17 | 1002.0 |
| 20260504010901 | 17 | 247 | 3.2 | 4.8 | 0.00 | 0.00 | 0.00 | 17 | 1002.0 |
| 20260504010358 | 18 | 246 | 1.6 | 4.8 | 0.00 | 0.00 | 0.00 | 16 | 1002.1 |
| 20260504005847 | 18 | 250 | 3.2 | 9.7 | 0.00 | 0.00 | 0.00 | 16 | 1002.1 |
| 20260504005615 | 18 | 250 | 3.2 | 9.7 | 0.00 | 0.00 | 0.00 | 15 | 1002.2 |
| 20260504004845 | 18 | 219 | 3.2 | 11.3 | 0.00 | 0.00 | 0.00 | 15 | 1002.3 |
| 20260504004324 | 18 | 219 | 3.2 | 9.7 | 0.00 | 0.00 | 0.00 | 15 | 1002.4 |
| 20260504003814 | 18 | 234 | 1.6 | 9.7 | 0.00 | 0.00 | 0.00 | 15 | 1002.3 |
| 20260504003310 | 18 | 235 | 3.2 | 12.9 | 0.00 | 0.00 | 0.00 | 16 | 1002.5 |
| 20260504002810 | 18 | 235 | 4.8 | 12.9 | 0.00 | 0.00 | 0.00 | 15 | 1002.4 |
| 20260504002242 | 18 | 235 | 3.2 | 6.4 | 0.00 | 0.00 | 0.00 | 15 | 1002.6 |
| 20260504001715 | 18 | 241 | 4.8 | 14.5 | 0.00 | 0.00 | 0.00 | 15 | 1002.6 |
| 20260504001212 | 18 | 250 | 6.4 | 17.7 | 0.00 | 0.00 | 0.00 | 15 | 1002.6 |
| 20260504000710 | 18 | 271 | 4.8 | 17.7 | 0.00 | 0.00 | 0.00 | 15 | 1002.7 |
| 20260504000142 | 18 | 232 | 8.0 | 16.1 | 0.00 | 0.00 | 0.00 | 15 | 1002.8 |
| 20260503235640 | 18 | 297 | 9.7 | 25.7 | 0.00 | 0.00 | 0.00 | 15 | 1002.8 |
| 20260503235114 | 18 | 248 | 9.7 | 25.7 | 0.00 | 0.00 | 0.00 | 14 | 1002.6 |
| 20260503234547 | 19 | 305 | 6.4 | 22.5 | 0.00 | 0.00 | 0.00 | 14 | 1002.7 |
| 20260503234044 | 19 | 342 | 4.8 | 11.3 | 0.00 | 0.00 | 0.00 | 14 | 1002.7 |
| 20260503233516 | 19 | 333 | 4.8 | 22.5 | 0.00 | 0.00 | 0.00 | 14 | 1002.7 |
| 20260503233014 | 19 | 238 | 6.4 | 22.5 | 0.00 | 0.00 | 0.00 | 14 | 1002.8 |
| 20260503232719 | 19 | 270 | 11.3 | 25.7 | 0.00 | 0.00 | 0.00 | 14 | 1002.9 |
| 20260503232424 | 19 | 310 | 12.9 | 25.7 | 0.00 | 0.00 | 0.00 | 13 | 1002.9 |
| 20260503232027 | 19 | 325 | 12.9 | 20.9 | 0.00 | 0.00 | 0.00 | 14 | 1003.0 |
| 20260503230914 | 19 | 319 | 11.3 | 25.7 | 0.00 | 0.00 | 0.00 | 13 | 1003.1 |
| 20260503230411 | 19 | 279 | 9.7 | 22.5 | 0.00 | 0.00 | 0.00 | 13 | 1003.3 |
| 20260503225844 | 18 | 238 | 11.3 | 29.0 | 0.00 | 0.00 | 0.00 | 14 | 1003.5 |
| 20260503225550 | 18 | 277 | 11.3 | 29.0 | 0.00 | 0.00 | 0.00 | 14 | 1003.5 |
| 20260503224751 | 19 | 286 | 11.3 | 37.0 | 0.00 | 0.00 | 0.00 | 14 | 1003.5 |
| 20260503224224 | 19 | 306 | 11.3 | 37.0 | 0.00 | 0.00 | 0.00 | 13 | 1003.6 |
| 20260503223721 | 20 | 277 | 9.7 | 19.3 | 0.00 | 0.00 | 0.00 | 14 | 1003.3 |
| 20260503223218 | 20 | 217 | 9.7 | 27.4 | 0.00 | 0.00 | 0.00 | 15 | 1003.5 |
| 20260503222650 | 19 | 342 | 9.7 | 27.4 | 0.00 | 0.00 | 0.00 | 15 | 1003.5 |
| 20260503222145 | 19 | 280 | 9.7 | 24.1 | 0.00 | 0.00 | 0.00 | 14 | 1003.5 |
| 20260503221643 | 20 | 274 | 8.0 | 24.1 | 0.00 | 0.00 | 0.00 | 14 | 1003.6 |
| 20260503221140 | 19 | 191 | 11.3 | 29.0 | 0.00 | 0.00 | 0.00 | 13 | 1003.5 |
| 20260503220616 | 19 | 300 | 12.9 | 29.0 | 0.00 | 0.00 | 0.00 | 14 | 1003.5 |
| 20260503220101 | 19 | 355 | 12.9 | 24.1 | 0.00 | 0.00 | 0.00 | 14 | 1003.5 |
| 20260503215600 | 19 | 287 | 14.5 | 32.2 | 0.00 | 0.00 | 0.00 | 13 | 1003.6 |
| 20260503215059 | 19 | 244 | 11.3 | 32.2 | 0.00 | 0.00 | 0.00 | 15 | 1003.6 |
| 20260503214802 | 19 | 238 | 9.7 | 27.4 | 0.00 | 0.00 | 0.00 | 16 | 1003.6 |
| 20260503214259 | 19 | 245 | 11.3 | 29.0 | 0.00 | 0.00 | 0.00 | 15 | 1003.7 |
| 20260503213501 | 18 | 294 | 14.5 | 29.0 | 0.00 | 0.00 | 0.00 | 15 | 1003.7 |
| 20260503212959 | 19 | 299 | 14.5 | 25.7 | 0.00 | 0.00 | 0.00 | 15 | 1003.7 |
| 20260503212432 | 19 | 286 | 11.3 | 25.7 | 0.00 | 0.00 | 0.00 | 15 | 1003.8 |
| 20260503211915 | 19 | 324 | 11.3 | 27.4 | 0.00 | 0.00 | 0.00 | 16 | 1003.8 |
| 20260503211418 | 18 | 276 | 11.3 | 27.4 | 0.00 | 0.00 | 0.00 | 16 | 1003.9 |
| 20260503210850 | 19 | 321 | 9.7 | 24.1 | 0.00 | 0.00 | 0.00 | 15 | 1004.0 |
| 20260503210349 | 18 | 347 | 11.3 | 30.6 | 0.00 | 0.00 | 0.00 | 14 | 1004.0 |
| 20260503205824 | 18 | 261 | 14.5 | 33.8 | 0.00 | 0.00 | 0.00 | 16 | 1004.0 |
| 20260503205256 | 18 | 252 | 14.5 | 33.8 | 0.00 | 0.00 | 0.00 | 16 | 1004.0 |
| 20260503204754 | 18 | 316 | 12.9 | 29.0 | 0.00 | 0.00 | 0.00 | 15 | 1004.2 |
| 20260503204228 | 18 | 252 | 12.9 | 29.0 | 0.00 | 0.00 | 0.00 | 16 | 1004.3 |
| 20260503203702 | 18 | 266 | 14.5 | 29.0 | 0.00 | 0.00 | 0.00 | 16 | 1004.4 |
| 20260503203202 | 18 | 242 | 14.5 | 25.7 | 0.00 | 0.00 | 0.00 | 16 | 1004.2 |